Weather in Brena Baja

Spain     28°38′30″N   17°46′30″W
temp.,
°C
wind,
m/s
gust,
m/s
humid.,
%
clouds,
%
prec.,
mm/h
press.,
hPa
HPBL,
m
23 october, sat
sat2301:00+18ne468547 0.1 1021535
04:00+19ne778461 0.4 1019780
07:00+18ne778140 0.6 1019922
10:00+18ene777890 0.4 1020981
13:00+19ene667459 0.4 10211009
16:00+19ne667559 0.1 1020948
19:00+19ne667194 0.2 1020950
22:00+19ne777851 0.1 10211030
24 october, sun
sun2401:00+18ene6678100 0.3 1021984
04:00+18ene5679100 0.1 1020931
07:00+18ene5677100 0.3 1020844
10:00+18ene667950 0.3 1022877
13:00+18ene667956 0.6 1022706
16:00+19ene557840 0.4 1020702
19:00+18ene668096 0.9 1020911
22:00+18ne668075 0.4 1022862
25 october, mon
mon2501:00+18ne558069 0.8 1022572
04:00+18ne568269 0.4 1020675
07:00+18ne667788 0.7 1020901
10:00+18ne777945 0.3 1021813
13:00+19ne567943 0.4 1021730
16:00+19ne677540 0.4 1019935
19:00+19ne678251 0.6 1020717
22:00+19ne788564 0.7 1021624
26 october, tue
tue2601:00+19ene888556 1.4 1020813
04:00+18ene668347 0.3 1020731
07:00+18ene667550 0.3 1020856
10:00+18ene667316 0.0 1021896
13:00+19ene566847 0.0 10211001
16:00+19ene56718 0.0 1019893
19:00+19ene677736 0.1 1019907
22:00+18ene678055 0.1 1020870
27 october, wed
wed2701:00+18ene667762 0.2 1020884
04:00+18ne5673100 0.0 1019863
07:00+18ene5575100 0.0 1019862
10:00+18ene5572100 0.0 1020907
13:00+19ene5568100 0.0 1020985
16:00+19ne557175 0.0 1019966
19:00+18ne5572100 0.1 1019966
22:00+18ne567553 0.0 1020890